D-STAR ONE (LIGHTSAT) (44393 NORAD) Tracking and Keplerian Element Data

This shows tracking and keplerian element data for the satellite.

Feedback or suggestion? Click here.




ElementValue
Catalog44393
NameD-STAR ONE (LIGHTSAT)
Epoch Orbit4120
Epoch Day94.11233702
Epoch Year2020
RAAN56.5592
Inclination97.5305
Eccentricity0.0023104
Argument of Perigee34.1301
Mean Anonmoly326.141
Mean Motion15.12478689
Decay Rate1.098E-05
L11 44393U 19038H 20094.11233702 .00001098 00000-0 66524-4 0 9993
L22 44393 97.5305 56.5592 0023104 34.1301 326.1410 15.12478689 41203

Live tracking and technical data element details for D-STAR ONE (LIGHTSAT) (NORAD 44393). D-STAR ONE (LIGHTSAT) can be tracked NOW for your location showing map with azimuth and elevation plus other details from your city location.

Track the satellite on the map from your city or location and see movement details for azimuth, elevation, latitude, longitude, range, height, and movement on the map or in text.







IsCatalogInMostPopularTable: catalog: 44393, numindb: 47
Update: records affected: 1



GetName: 44393 D-STAR ONE (LIGHTSAT)

Hit Count: updated at: Thu, 09 Apr 2020 08:05:51 GMT